Time,TemperatureF,DewpointF,PressureIn,WindDirection,WindDirectionDegrees,WindSpeedMPH,WindSpeedGustMPH,Humidity,HourlyPrecipIn,Conditions,Clouds,dailyrainin,SoftwareType,DateUTC
2013-05-29 00:02:00,60.0,55.0,30.21,SSE,158,0.0,0.0,84,0.00,,,0.00,,2013-05-29 04:02:00,
2013-05-29 00:13:00,60.0,55.0,30.21,SSW,202,0.0,0.0,85,0.00,,,0.00,,2013-05-29 04:13:00,
2013-05-29 00:23:00,60.0,55.0,30.21,SSW,202,0.0,0.0,85,0.00,,,0.00,,2013-05-29 04:23:00,
2013-05-29 00:33:00,60.0,55.0,30.21,SSW,202,0.0,0.0,85,0.00,,,0.00,,2013-05-29 04:33:00,
2013-05-29 00:42:00,60.0,55.0,30.21,SSW,202,0.0,0.0,85,0.00,,,0.00,,2013-05-29 04:42:00,
2013-05-29 00:52:00,60.0,55.0,30.21,SSW,202,0.0,0.0,85,0.00,,,0.00,,2013-05-29 04:52:00,
2013-05-29 01:03:00,60.0,56.0,30.21,SW,225,0.0,0.0,86,0.00,,,0.00,,2013-05-29 05:03:00,
2013-05-29 01:12:00,60.0,56.0,30.21,SW,225,0.0,0.0,86,0.00,,,0.00,,2013-05-29 05:12:00,
2013-05-29 01:22:00,60.0,56.0,30.21,SSW,202,0.0,0.0,86,0.00,,,0.00,,2013-05-29 05:22:00,
2013-05-29 01:33:00,59.0,55.0,30.21,SSW,202,0.0,0.0,87,0.00,,,0.00,,2013-05-29 05:33:00,
2013-05-29 01:42:00,59.0,55.0,30.21,SSW,202,0.0,0.0,87,0.00,,,0.00,,2013-05-29 05:42:00,
2013-05-29 01:52:00,59.0,55.0,30.21,SSW,202,0.0,0.0,87,0.00,,,0.00,,2013-05-29 05:52:00,
2013-05-29 02:02:00,59.0,55.0,30.21,SSE,158,0.0,6.0,88,0.00,,,0.00,,2013-05-29 06:02:00,
2013-05-29 02:12:00,59.0,55.0,30.21,SSE,158,0.0,6.0,88,0.00,,,0.00,,2013-05-29 06:12:00,
2013-05-29 02:22:00,59.0,55.0,30.18,SSE,158,0.0,4.0,88,0.00,,,0.00,,2013-05-29 06:22:00,
2013-05-29 02:32:00,59.0,55.0,30.18,SSE,158,0.0,4.0,88,0.00,,,0.00,,2013-05-29 06:32:00,
2013-05-29 02:42:00,59.0,55.0,30.18,SSE,158,0.0,4.0,88,0.00,,,0.00,,2013-05-29 06:42:00,
2013-05-29 02:52:00,59.0,56.0,30.18,SSE,158,0.0,6.0,89,0.00,,,0.00,,2013-05-29 06:52:00,
2013-05-29 03:01:00,59.0,56.0,30.18,SSE,158,0.0,6.0,89,0.00,,,0.00,,2013-05-29 07:01:00,
2013-05-29 03:12:00,59.0,56.0,30.18,SSW,202,4.0,4.0,89,0.00,,,0.00,,2013-05-29 07:12:00,
2013-05-29 03:21:00,59.0,56.0,30.18,SSW,202,4.0,4.0,89,0.00,,,0.00,,2013-05-29 07:21:00,
2013-05-29 03:34:00,59.0,56.0,30.18,SSW,202,4.0,4.0,89,0.00,,,0.00,,2013-05-29 07:34:00,
2013-05-29 03:42:00,59.0,56.0,30.18,SSW,202,4.0,4.0,89,0.00,,,0.00,,2013-05-29 07:42:00,
2013-05-29 03:52:00,59.0,56.0,30.18,SSW,202,4.0,4.0,89,0.00,,,0.00,,2013-05-29 07:52:00,
2013-05-29 04:02:00,59.0,56.0,30.15,SSE,158,0.0,0.0,89,0.00,,,0.00,,2013-05-29 08:02:00,
2013-05-29 04:11:00,59.0,56.0,30.15,SSE,158,0.0,0.0,89,0.00,,,0.00,,2013-05-29 08:11:00,
2013-05-29 04:22:00,58.0,55.0,30.15,South,180,0.0,2.0,89,0.00,,,0.00,,2013-05-29 08:22:00,
2013-05-29 04:32:00,58.0,55.0,30.15,SSE,158,0.0,4.0,89,0.00,,,0.00,,2013-05-29 08:32:00,
2013-05-29 04:42:00,58.0,55.0,30.15,SSE,158,0.0,4.0,89,0.00,,,0.00,,2013-05-29 08:42:00,
2013-05-29 04:52:00,58.0,55.0,30.15,South,180,0.0,0.0,90,0.00,,,0.00,,2013-05-29 08:52:00,
2013-05-29 05:01:00,58.0,55.0,30.15,SE,135,0.0,0.0,90,0.00,,,0.00,,2013-05-29 09:01:00,
2013-05-29 05:11:00,58.0,55.0,30.15,SE,135,0.0,0.0,90,0.00,,,0.00,,2013-05-29 09:11:00,
2013-05-29 05:21:00,58.0,55.0,30.15,SSE,158,0.0,3.0,90,0.00,,,0.00,,2013-05-29 09:21:00,
2013-05-29 05:33:00,58.0,55.0,30.15,South,180,0.0,5.0,90,0.00,,,0.00,,2013-05-29 09:33:00,
2013-05-29 05:42:00,58.0,55.0,30.15,South,180,0.0,5.0,90,0.00,,,0.00,,2013-05-29 09:42:00,
2013-05-29 05:52:00,58.0,55.0,30.15,South,180,0.0,5.0,90,0.00,,,0.00,,2013-05-29 09:52:00,
2013-05-29 06:03:00,59.0,56.0,30.12,SSE,158,0.0,1.0,91,0.00,,,0.00,,2013-05-29 10:03:00,
2013-05-29 06:12:00,59.0,56.0,30.12,South,180,0.0,5.0,91,0.00,,,0.00,,2013-05-29 10:12:00,
2013-05-29 06:22:00,59.0,56.0,30.12,South,180,0.0,5.0,91,0.00,,,0.00,,2013-05-29 10:22:00,
2013-05-29 06:33:00,59.0,56.0,30.12,South,180,0.0,5.0,91,0.00,,,0.00,,2013-05-29 10:33:00,
2013-05-29 06:42:00,59.0,56.0,30.12,South,180,0.0,5.0,91,0.00,,,0.00,,2013-05-29 10:42:00,
2013-05-29 06:52:00,59.0,56.0,30.12,South,180,0.0,5.0,91,0.00,,,0.00,,2013-05-29 10:52:00,
2013-05-29 07:02:00,59.0,56.0,30.12,South,180,0.0,5.0,91,0.00,,,0.00,,2013-05-29 11:02:00,
2013-05-29 07:12:00,59.0,56.0,30.12,South,180,0.0,5.0,91,0.00,,,0.00,,2013-05-29 11:12:00,
2013-05-29 07:22:00,59.0,56.0,30.15,South,180,0.0,10.0,91,0.00,,,0.00,,2013-05-29 11:22:00,
2013-05-29 07:32:00,59.0,57.0,30.12,SE,135,0.0,7.0,92,0.00,,,0.00,,2013-05-29 11:32:00,
2013-05-29 07:42:00,59.0,57.0,30.12,SE,135,0.0,7.0,92,0.00,,,0.00,,2013-05-29 11:42:00,
2013-05-29 07:52:00,59.0,57.0,30.12,SE,135,0.0,7.0,92,0.00,,,0.00,,2013-05-29 11:52:00,
2013-05-29 08:01:00,59.0,57.0,30.15,South,180,0.0,0.0,92,0.00,,,0.00,,2013-05-29 12:01:00,
2013-05-29 08:11:00,59.0,57.0,30.15,South,180,0.0,0.0,92,0.00,,,0.00,,2013-05-29 12:11:00,
2013-05-29 08:22:00,59.0,57.0,30.15,South,180,0.0,0.0,92,0.00,,,0.00,,2013-05-29 12:22:00,
2013-05-29 08:32:00,59.0,57.0,30.15,South,180,0.0,0.0,92,0.00,,,0.00,,2013-05-29 12:32:00,
2013-05-29 08:42:00,59.0,57.0,30.15,South,180,0.0,0.0,92,0.00,,,0.00,,2013-05-29 12:42:00,
2013-05-29 08:52:00,59.0,57.0,30.15,SSE,158,0.0,0.0,92,0.00,,,0.00,,2013-05-29 12:52:00,
2013-05-29 09:02:00,59.0,57.0,30.15,SSE,158,0.0,0.0,92,0.00,,,0.00,,2013-05-29 13:02:00,
2013-05-29 09:11:00,59.0,57.0,30.15,SSE,158,0.0,0.0,92,0.00,,,0.00,,2013-05-29 13:11:00,
2013-05-29 09:22:00,59.0,57.0,30.15,SSE,158,0.0,0.0,92,0.00,,,0.00,,2013-05-29 13:22:00,
2013-05-29 10:02:00,60.0,58.0,30.12,SSW,202,0.0,0.0,92,0.00,,,0.00,,2013-05-29 14:02:00,
2013-05-29 10:11:00,60.0,58.0,30.12,SSW,202,0.0,0.0,92,0.00,,,0.00,,2013-05-29 14:11:00,
2013-05-29 10:22:00,60.0,58.0,30.12,SSE,158,0.0,0.0,93,0.00,,,0.00,,2013-05-29 14:22:00,
2013-05-29 10:32:00,60.0,58.0,30.12,SSE,158,0.0,4.0,93,0.00,,,0.00,,2013-05-29 14:32:00,
2013-05-29 10:42:00,60.0,58.0,30.12,SSE,158,0.0,4.0,93,0.00,,,0.00,,2013-05-29 14:42:00,
2013-05-29 10:52:00,61.0,59.0,30.09,South,180,0.0,3.0,93,0.00,,,0.00,,2013-05-29 14:52:00,
2013-05-29 11:01:00,61.0,59.0,30.09,SW,225,0.0,0.0,93,0.00,,,0.00,,2013-05-29 15:01:00,
2013-05-29 11:11:00,61.0,59.0,30.09,SW,225,0.0,0.0,93,0.00,,,0.00,,2013-05-29 15:11:00,
2013-05-29 11:21:00,61.0,59.0,30.09,SW,225,0.0,0.0,93,0.00,,,0.00,,2013-05-29 15:21:00,
2013-05-29 11:33:00,60.0,58.0,30.12,SSE,158,0.0,0.0,93,0.00,,,0.00,,2013-05-29 15:33:00,
2013-05-29 11:43:00,60.0,58.0,30.12,SSE,158,0.0,0.0,93,0.00,,,0.00,,2013-05-29 15:43:00,
2013-05-29 11:53:00,60.0,58.0,30.12,SSE,158,0.0,0.0,93,0.00,,,0.00,,2013-05-29 15:53:00,
2013-05-29 12:03:00,61.0,59.0,30.09,SW,225,0.0,0.0,93,0.00,,,0.00,,2013-05-29 16:03:00,
2013-05-29 12:12:00,61.0,59.0,30.09,SW,225,0.0,0.0,93,0.00,,,0.00,,2013-05-29 16:12:00,
2013-05-29 12:22:00,61.0,59.0,30.09,SW,225,0.0,0.0,93,0.00,,,0.00,,2013-05-29 16:22:00,
2013-05-29 12:33:00,61.0,59.0,30.09,SW,225,0.0,0.0,93,0.00,,,0.00,,2013-05-29 16:33:00,
2013-05-29 12:42:00,61.0,59.0,30.09,SW,225,0.0,0.0,93,0.00,,,0.00,,2013-05-29 16:42:00,
2013-05-29 12:52:00,61.0,59.0,30.09,SW,225,0.0,0.0,93,0.00,,,0.00,,2013-05-29 16:52:00,
2013-05-29 14:01:00,64.0,61.0,30.06,North,0,0.0,0.0,90,0.00,,,0.00,,2013-05-29 18:01:00,
2013-05-29 14:13:00,65.0,62.0,30.06,West,270,0.0,0.0,90,0.00,,,0.00,,2013-05-29 18:13:00,
2013-05-29 14:22:00,65.0,62.0,30.06,West,270,0.0,0.0,90,0.00,,,0.00,,2013-05-29 18:22:00,
2013-05-29 14:32:00,65.0,62.0,30.06,West,270,0.0,0.0,90,0.00,,,0.00,,2013-05-29 18:32:00,
2013-05-29 14:42:00,65.0,62.0,30.06,West,270,0.0,0.0,90,0.00,,,0.00,,2013-05-29 18:42:00,
2013-05-29 14:51:00,64.0,61.0,30.06,West,270,0.0,0.0,89,0.00,,,0.00,,2013-05-29 18:51:00,
2013-05-29 15:02:00,66.0,61.0,30.06,SW,225,5.0,5.0,85,0.00,,,0.00,,2013-05-29 19:02:00,
2013-05-29 15:11:00,66.0,61.0,30.06,SW,225,5.0,5.0,85,0.00,,,0.00,,2013-05-29 19:11:00,
2013-05-29 15:22:00,66.0,61.0,30.06,SW,225,5.0,5.0,85,0.00,,,0.00,,2013-05-29 19:22:00,
2013-05-29 15:32:00,64.0,59.0,30.06,WSW,248,0.0,0.0,85,0.00,,,0.00,,2013-05-29 19:32:00,
2013-05-29 15:44:00,64.0,59.0,30.06,WSW,248,0.0,0.0,85,0.00,,,0.00,,2013-05-29 19:44:00,
2013-05-29 15:53:00,64.0,59.0,30.06,WSW,248,0.0,0.0,85,0.00,,,0.00,,2013-05-29 19:53:00,
2013-05-29 16:03:00,64.0,59.0,30.06,NNE,22,0.0,0.0,85,0.00,,,0.00,,2013-05-29 20:03:00,
2013-05-29 16:11:00,64.0,59.0,30.06,NNE,22,0.0,0.0,85,0.00,,,0.00,,2013-05-29 20:11:00,
2013-05-29 16:23:00,64.0,59.0,30.06,NNE,22,0.0,0.0,85,0.00,,,0.00,,2013-05-29 20:23:00,
2013-05-29 16:33:00,64.0,59.0,30.06,NNE,22,0.0,0.0,85,0.00,,,0.00,,2013-05-29 20:33:00,
2013-05-29 16:42:00,64.0,59.0,30.06,NNE,22,0.0,0.0,85,0.00,,,0.00,,2013-05-29 20:42:00,
2013-05-29 16:52:00,64.0,59.0,30.06,NNE,22,0.0,0.0,85,0.00,,,0.00,,2013-05-29 20:52:00,
2013-05-29 17:44:00,64.0,59.0,30.03,SW,225,0.0,0.0,83,0.00,,,0.00,,2013-05-29 21:44:00,
2013-05-29 17:53:00,64.0,59.0,30.03,SW,225,0.0,0.0,83,0.00,,,0.00,,2013-05-29 21:53:00,
2013-05-29 18:03:00,64.0,59.0,30.03,SW,225,0.0,0.0,83,0.00,,,0.00,,2013-05-29 22:03:00,
2013-05-29 18:12:00,64.0,59.0,30.03,SW,225,0.0,0.0,83,0.00,,,0.00,,2013-05-29 22:12:00,
2013-05-29 18:23:00,64.0,59.0,30.03,SW,225,0.0,0.0,83,0.00,,,0.00,,2013-05-29 22:23:00,
2013-05-29 18:33:00,64.0,59.0,30.03,SW,225,0.0,0.0,83,0.00,,,0.00,,2013-05-29 22:33:00,
2013-05-29 18:42:00,63.0,58.0,30.03,SW,225,0.0,0.0,84,0.00,,,0.00,,2013-05-29 22:42:00,
2013-05-29 18:53:00,63.0,58.0,30.03,SW,225,0.0,0.0,84,0.00,,,0.00,,2013-05-29 22:53:00,
2013-05-29 19:02:00,63.0,58.0,30.03,SW,225,0.0,0.0,84,0.00,,,0.00,,2013-05-29 23:02:00,
2013-05-29 19:12:00,63.0,58.0,30.03,SW,225,0.0,0.0,84,0.00,,,0.00,,2013-05-29 23:12:00,
2013-05-29 19:22:00,63.0,58.0,30.03,SW,225,0.0,0.0,84,0.00,,,0.00,,2013-05-29 23:22:00,
2013-05-29 19:33:00,63.0,58.0,30.03,SW,225,0.0,0.0,84,0.00,,,0.00,,2013-05-29 23:33:00,
2013-05-29 19:42:00,62.0,58.0,30.03,North,0,0.0,0.0,86,0.00,,,0.00,,2013-05-29 23:42:00,
2013-05-29 19:53:00,62.0,58.0,30.03,North,0,0.0,0.0,86,0.00,,,0.00,,2013-05-29 23:53:00,
2013-05-29 20:02:00,62.0,58.0,30.03,North,0,0.0,0.0,86,0.00,,,0.00,,2013-05-30 00:02:00,
2013-05-29 20:12:00,62.0,58.0,30.03,North,0,0.0,0.0,86,0.00,,,0.00,,2013-05-30 00:12:00,
2013-05-29 20:22:00,62.0,58.0,30.03,North,0,0.0,0.0,86,0.00,,,0.00,,2013-05-30 00:22:00,
2013-05-29 20:32:00,62.0,58.0,30.03,North,0,0.0,0.0,86,0.00,,,0.00,,2013-05-30 00:32:00,
2013-05-29 20:42:00,62.0,58.0,30.03,North,0,0.0,0.0,86,0.00,,,0.00,,2013-05-30 00:42:00,
2013-05-29 20:52:00,62.0,58.0,30.03,North,0,0.0,0.0,86,0.00,,,0.00,,2013-05-30 00:52:00,
2013-05-29 21:52:00,60.0,56.0,30.03,North,0,0.0,0.0,88,0.00,,,0.00,,2013-05-30 01:52:00,
2013-05-29 22:02:00,60.0,56.0,30.03,North,0,0.0,0.0,88,0.00,,,0.00,,2013-05-30 02:02:00,
2013-05-29 22:11:00,60.0,56.0,30.03,North,0,0.0,0.0,88,0.00,,,0.00,,2013-05-30 02:11:00,
2013-05-29 22:21:00,60.0,56.0,30.03,North,0,0.0,0.0,88,0.00,,,0.00,,2013-05-30 02:21:00,
2013-05-29 22:32:00,60.0,56.0,30.03,North,0,0.0,0.0,88,0.00,,,0.00,,2013-05-30 02:32:00,
2013-05-29 22:42:00,60.0,56.0,30.03,North,0,0.0,0.0,88,0.00,,,0.00,,2013-05-30 02:42:00,
2013-05-29 22:52:00,60.0,56.0,30.03,North,0,0.0,0.0,88,0.00,,,0.00,,2013-05-30 02:52:00,
2013-05-29 23:02:00,60.0,56.0,30.03,North,0,0.0,0.0,88,0.00,,,0.00,,2013-05-30 03:02:00,